Starlink 30208

operational
NORAD ID: 57415 Int'l Des: 2023-102 Owner: SPXS Country: US Constellation: starlink
LEOCIRCULAR

关于 Starlink 30208

正在加载描述...

实时位置

正在加载3D地球...

即将过境

高度历史

Altitude vs Time

uPlot chart will show altitude changes over time

两行轨道根数

1 57415U 23102M 25353.28210376 -.00000057 00000-0 10885-4 0 9996
2 57415 43.0049 325.5564 0001162 271.4579 88.6131 15.02534975134094
Epoch: Dec 19, 2025 • Age: 11 hours

当前状态

高度 563.5 km
速度 7.58 km/s
星下点 -21.07°S, 179.67°E
发射日期 Jul 19, 2023
运行时间 2.4 years
类型 internet

技术详情

分类 Payload
质量 730.00 kg
干质量 700.00 kg
总质量 730.00 kg
长度 0.30 m
直径 4.10 m
跨度 29.00 m
形状 Box + pan
制造商 SPXS
平台类型 Starlink V2M
阶段状态 In Orbit
所有者/国家 SPXS/US

大型星座

Loading constellations...